| time (UTC) | temp F | wind direction | speed MPH | gust MPH | rain 1hr in | rain 24hr in | rain mn in | humidity % | barometer mb |
| 20260901041508 | 64 | 171 | 0.0 | 3.0 | 0.02 | 0.02 | 0.02 | 77 | 1008.1 |
| 20260901040007 | 65 | 179 | 5.0 | 15.0 | 0.02 | 0.02 | 0.02 | 74 | 1009.1 |
| 20260901034510 | 68 | 175 | 9.0 | 21.0 | 0.00 | 0.00 | 0.00 | 65 | 1009.3 |
| 20260901033004 | 73 | 159 | 15.0 | 25.0 | 0.00 | 0.00 | 0.00 | 54 | 1009.1 |
| 20260901031504 | 74 | 340 | 5.0 | 9.0 | 0.00 | 0.00 | 0.00 | 43 | 1007.5 |
| 20260901030002 | 73 | 355 | 1.0 | 6.0 | 0.00 | 0.00 | 0.00 | 45 | 1007.0 |
| 20260901024502 | 73 | 338 | 7.0 | 12.0 | 0.00 | 0.00 | 0.00 | 44 | 1006.8 |
| 20260901023001 | 73 | 286 | 9.0 | 15.0 | 0.00 | 0.00 | 0.00 | 45 | 1006.7 |
| 20260901021501 | 73 | 270 | 11.0 | 17.0 | 0.00 | 0.00 | 0.00 | 46 | 1006.3 |
| 20260901020101 | 73 | 250 | 10.0 | 14.0 | 0.00 | 0.00 | 0.00 | 48 | 1006.4 |
| 20260901014604 | 75 | 254 | 8.0 | 16.0 | 0.00 | 0.00 | 0.00 | 42 | 1006.5 |
| 20260901013100 | 76 | 261 | 9.0 | 18.0 | 0.00 | 0.00 | 0.00 | 39 | 1006.3 |
| 20260901011601 | 77 | 287 | 12.0 | 21.0 | 0.00 | 0.00 | 0.00 | 37 | 1006.1 |
| 20260901010101 | 79 | 293 | 9.0 | 16.0 | 0.00 | 0.00 | 0.00 | 34 | 1006.0 |
| 20260901004558 | 80 | 277 | 5.0 | 9.0 | 0.00 | 0.00 | 0.00 | 32 | 1005.8 |
| 20260901003100 | 81 | 246 | 3.0 | 7.0 | 0.00 | 0.00 | 0.00 | 33 | 1005.8 |
| 20260901001559 | 81 | 153 | 2.0 | 6.0 | 0.00 | 0.00 | 0.00 | 35 | 1005.8 |
| 20260901000056 | 82 | 183 | 3.0 | 6.0 | 0.00 | 0.00 | 0.00 | 33 | 1005.7 |
| 20260831234559 | 83 | 161 | 1.0 | 5.0 | 0.00 | 0.00 | 0.00 | 34 | 1005.7 |
| 20260831233053 | 83 | 148 | 1.0 | 5.0 | 0.00 | 0.00 | 0.00 | 35 | 1005.7 |
| 20260831231552 | 82 | 127 | 2.0 | 8.0 | 0.00 | 0.00 | 0.00 | 33 | 1005.9 |
| 20260831230050 | 83 | 168 | 3.0 | 10.0 | 0.00 | 0.00 | 0.00 | 32 | 1005.9 |
| 20260831224550 | 83 | 130 | 4.0 | 9.0 | 0.00 | 0.00 | 0.00 | 33 | 1005.9 |
| 20260831223050 | 84 | 154 | 6.0 | 17.0 | 0.00 | 0.00 | 0.00 | 34 | 1006.0 |
| 20260831221548 | 84 | 149 | 5.0 | 14.0 | 0.00 | 0.00 | 0.00 | 32 | 1006.1 |
| 20260831220055 | 84 | 163 | 6.0 | 9.0 | 0.00 | 0.00 | 0.00 | 33 | 1006.1 |
| 20260831214548 | 84 | 144 | 7.0 | 13.0 | 0.00 | 0.00 | 0.00 | 33 | 1006.2 |
| 20260831213046 | 85 | 128 | 7.0 | 12.0 | 0.00 | 0.00 | 0.00 | 34 | 1006.4 |
| 20260831211541 | 84 | 129 | 3.0 | 8.0 | 0.00 | 0.00 | 0.00 | 35 | 1006.6 |
| 20260831210038 | 83 | 161 | 3.0 | 7.0 | 0.00 | 0.00 | 0.00 | 36 | 1006.9 |
| 20260831204547 | 82 | 113 | 4.0 | 10.0 | 0.00 | 0.00 | 0.00 | 35 | 1007.1 |
| 20260831203053 | 82 | 130 | 4.0 | 10.0 | 0.00 | 0.00 | 0.00 | 34 | 1007.4 |
| 20260831201532 | 82 | 172 | 5.0 | 9.0 | 0.00 | 0.00 | 0.00 | 33 | 1007.6 |
| 20260831200037 | 82 | 131 | 3.0 | 12.0 | 0.00 | 0.00 | 0.00 | 34 | 1007.8 |
| 20260831194528 | 82 | 144 | 5.0 | 10.0 | 0.00 | 0.00 | 0.00 | 35 | 1008.0 |
| 20260831193026 | 81 | 144 | 5.0 | 11.0 | 0.00 | 0.00 | 0.00 | 37 | 1008.2 |
| 20260831191523 | 81 | 173 | 5.0 | 9.0 | 0.00 | 0.00 | 0.00 | 38 | 1008.4 |
| 20260831190023 | 80 | 138 | 4.0 | 13.0 | 0.00 | 0.00 | 0.00 | 37 | 1008.6 |
| 20260831184520 | 80 | 172 | 5.0 | 11.0 | 0.00 | 0.00 | 0.00 | 36 | 1008.8 |
| 20260831183020 | 80 | 166 | 4.0 | 9.0 | 0.00 | 0.00 | 0.00 | 36 | 1008.8 |
| 20260831181518 | 79 | 128 | 2.0 | 8.0 | 0.00 | 0.00 | 0.00 | 38 | 1008.9 |
| 20260831180019 | 79 | 152 | 3.0 | 6.0 | 0.00 | 0.00 | 0.00 | 35 | 1009.1 |
| 20260831174516 | 79 | 115 | 4.0 | 9.0 | 0.00 | 0.00 | 0.00 | 38 | 1009.1 |
| 20260831173016 | 79 | 126 | 4.0 | 9.0 | 0.00 | 0.00 | 0.00 | 39 | 1009.2 |
| 20260831171515 | 79 | 148 | 2.0 | 7.0 | 0.00 | 0.00 | 0.00 | 38 | 1009.3 |
| 20260831170022 | 79 | 150 | 3.0 | 7.0 | 0.00 | 0.00 | 0.00 | 38 | 1009.3 |
| 20260831164514 | 80 | 126 | 4.0 | 9.0 | 0.00 | 0.00 | 0.00 | 38 | 1009.3 |
| 20260831163011 | 79 | 127 | 2.0 | 6.0 | 0.00 | 0.00 | 0.00 | 42 | 1009.4 |
| 20260831161511 | 78 | 129 | 2.0 | 8.0 | 0.00 | 0.00 | 0.00 | 42 | 1009.3 |
| 20260831160005 | 77 | 31 | 2.0 | 8.0 | 0.00 | 0.00 | 0.00 | 40 | 1009.4 |
| 20260831154506 | 77 | 98 | 3.0 | 6.0 | 0.00 | 0.00 | 0.00 | 41 | 1009.5 |
| 20260831153130 | 75 | 109 | 1.0 | 4.0 | 0.00 | 0.00 | 0.00 | 44 | 1009.4 |
| 20260831151555 | 73 | 76 | 0.0 | 2.0 | 0.00 | 0.00 | 0.00 | 47 | 1009.3 |
| 20260831150050 | 70 | 76 | 1.0 | 5.0 | 0.00 | 0.00 | 0.00 | 51 | 1009.6 |
| 20260831144547 | 69 | 15 | 2.0 | 5.0 | 0.00 | 0.00 | 0.00 | 52 | 1009.6 |
| 20260831143050 | 66 | 5 | 3.0 | 6.0 | 0.00 | 0.00 | 0.00 | 56 | 1009.3 |
| 20260831141545 | 65 | 40 | 4.0 | 6.0 | 0.00 | 0.00 | 0.00 | 58 | 1009.2 |
| 20260831140042 | 64 | 51 | 4.0 | 6.0 | 0.00 | 0.00 | 0.00 | 62 | 1009.0 |
| 20260831134539 | 63 | 202 | 0.0 | 3.0 | 0.00 | 0.00 | 0.00 | 57 | 1008.7 |
| 20260831133037 | 62 | 202 | 1.0 | 3.0 | 0.00 | 0.00 | 0.00 | 57 | 1008.7 |
| 20260831131538 | 62 | 202 | 1.0 | 3.0 | 0.00 | 0.00 | 0.00 | 60 | 1008.4 |
| 20260831130144 | 61 | 250 | 2.0 | 3.0 | 0.00 | 0.00 | 0.00 | 58 | 1008.3 |
| 20260831124553 | 61 | 178 | 1.0 | 3.0 | 0.00 | 0.00 | 0.00 | 58 | 1008.1 |
| 20260831123049 | 61 | 179 | 0.0 | 2.0 | 0.00 | 0.00 | 0.00 | 58 | 1007.8 |
| 20260831121527 | 61 | 179 | 1.0 | 4.0 | 0.00 | 0.00 | 0.00 | 60 | 1007.7 |
| 20260831120032 | 61 | 292 | 2.0 | 4.0 | 0.00 | 0.00 | 0.00 | 60 | 1007.5 |
| 20260831114520 | 61 | 292 | 1.0 | 2.0 | 0.00 | 0.00 | 0.00 | 58 | 1007.5 |
| 20260831113022 | 62 | 292 | 0.0 | 2.0 | 0.00 | 0.00 | 0.00 | 56 | 1007.5 |
| 20260831111513 | 63 | 292 | 3.0 | 6.0 | 0.00 | 0.00 | 0.00 | 56 | 1007.1 |
| 20260831110011 | 62 | 300 | 5.0 | 7.0 | 0.00 | 0.00 | 0.00 | 58 | 1007.0 |
| 20260831104521 | 61 | 277 | 4.0 | 6.0 | 0.00 | 0.00 | 0.00 | 60 | 1006.7 |
| 20260831103009 | 62 | 219 | 2.0 | 4.0 | 0.00 | 0.00 | 0.00 | 61 | 1006.8 |
| 20260831101510 | 62 | 89 | 1.0 | 6.0 | 0.00 | 0.00 | 0.00 | 61 | 1006.5 |
| 20260831100012 | 62 | 304 | 2.0 | 6.0 | 0.00 | 0.00 | 0.00 | 61 | 1006.3 |
| 20260831094503 | 61 | 277 | 4.0 | 9.0 | 0.00 | 0.00 | 0.00 | 63 | 1006.0 |
| 20260831093001 | 61 | 5 | 3.0 | 8.0 | 0.00 | 0.00 | 0.00 | 64 | 1005.9 |
| 20260831091603 | 61 | 21 | 1.0 | 5.0 | 0.00 | 0.00 | 0.00 | 62 | 1005.9 |
| 20260831090059 | 62 | 28 | 5.0 | 8.0 | 0.00 | 0.00 | 0.00 | 61 | 1005.9 |
| 20260831084558 | 62 | 336 | 5.0 | 7.0 | 0.00 | 0.00 | 0.00 | 59 | 1005.8 |
| 20260831083055 | 63 | 122 | 0.0 | 2.0 | 0.00 | 0.00 | 0.00 | 56 | 1005.6 |
| 20260831081557 | 64 | 111 | 1.0 | 5.0 | 0.00 | 0.00 | 0.00 | 56 | 1005.6 |
| 20260831080048 | 64 | 315 | 0.0 | 4.0 | 0.00 | 0.00 | 0.00 | 56 | 1005.7 |
| 20260831074544 | 64 | 15 | 3.0 | 5.0 | 0.00 | 0.00 | 0.00 | 56 | 1005.9 |
| 20260831073042 | 65 | 355 | 1.0 | 5.0 | 0.00 | 0.00 | 0.00 | 55 | 1005.8 |
| 20260831071541 | 66 | 25 | 9.0 | 12.0 | 0.00 | 0.00 | 0.00 | 54 | 1005.9 |
| 20260831070106 | 66 | 201 | 4.0 | 8.0 | 0.00 | 0.00 | 0.00 | 52 | 1005.8 |
| 20260831064535 | 65 | 211 | 5.0 | 8.0 | 0.00 | 0.00 | 0.00 | 61 | 1005.8 |
| 20260831063033 | 65 | 207 | 3.0 | 4.0 | 0.00 | 0.00 | 0.00 | 63 | 1006.1 |
| 20260831061530 | 65 | 284 | 0.0 | 4.0 | 0.00 | 0.00 | 0.00 | 62 | 1006.0 |
| 20260831060028 | 65 | 284 | 2.0 | 6.0 | 0.00 | 0.00 | 0.00 | 61 | 1006.2 |
| 20260831054526 | 66 | 360 | 5.0 | 7.0 | 0.00 | 0.00 | 0.00 | 61 | 1006.5 |
| 20260831053023 | 68 | 157 | 6.0 | 10.0 | 0.00 | 0.00 | 0.00 | 55 | 1006.3 |
| 20260831051533 | 70 | 130 | 0.0 | 4.0 | 0.00 | 0.00 | 0.00 | 49 | 1006.4 |
| 20260831050021 | 70 | 254 | 4.0 | 10.0 | 0.00 | 0.00 | 0.00 | 46 | 1006.5 |
| 20260831044521 | 68 | 261 | 2.0 | 5.0 | 0.00 | 0.00 | 0.00 | 48 | 1006.6 |
| 20260831043021 | 68 | 294 | 5.0 | 8.0 | 0.00 | 0.00 | 0.00 | 49 | 1006.6 |